Location: Corralito
(10.2667°N, 66.9500°W)
Time: 09:28:24
(UTC+00:00)

GPS 2-15 Rocket1 - Pass Details

Date: 10 December 2023
Orbit: 617 x 666 km, 19.8° (Epoch: 02 March)

Event Time Altitude Azimuth Distance (km) Brightness Sun altitude
Exits shadow 08:47:50 73° 56° (NE) 644 3.1 -25.2°
Drops below altitude 10° 08:52:13 10° 104° (ESE) 1,987 6.7 -24.2°
Sets 08:54:36 0° 105° (ESE) 2,902 7.9 -23.6°
